Regional Weather Roundup
Issued by NWS Jackson, KY

Home | Current Version | Previous Version | Graphics & Text | Print | Product List | Glossary On
Versions: 1 2 3 4 5 6 7 8 9 10 11 12 13 14 15 16 17 18 19 20 21 22 23 24 25 26 27
000
ASUS43 KJKL 230610
RWRJKL

EAST KENTUCKY HOURLY WEATHER ROUNDUP
NATIONAL WEATHER SERVICE JACKSON KY
100 AM EST MON JAN 23 2017

NOTE: "FAIR" INDICATES FEW OR NO CLOUDS BELOW 12,000 FEET WITH
NO SIGNIFICANT WEATHER AND/OR OBSTRUCTIONS TO VISIBILITY.

* THESE REPORTS ARE NOT UNDER NWS QUALITY CONTROL AND MAY NOT
  REPORT WEATHER SUCH AS PRECIPITATION AND FOG.

KYZ079-080-083-085-087-088-110-112-115-119-120-230700
...EASTERN KENTUCKY...

CITY           SKY/WX    TMP DP  RH WIND       PRES   REMARKS
JACKSON        RAIN      52  51  97 NE8       29.29F FOG
6HR MIN TEMP:  52; 6HR MAX TEMP:  54; 6HR PCP:  0.23;

LONDON         LGT RAIN  54  50  86 NE10G21   29.26F
6HR MIN TEMP:  54; 6HR MAX TEMP:  55; 6HR PCP:  0.08;

SOMERSET*      DRIZZLE   52  52 100 N9        29.28S
MONTICELLO*    HVY RAIN  54  53  97 N17G26    29.27F
6HR MIN TEMP:  54; 6HR MAX TEMP:  55; 6HR PCP:  0.19;

WILLIAMSBURG*  CLOUDY    54  54 100 NE9       29.24F
MIDDLESBORO*   HVY RAIN  53  53 100 CALM      29.23S
6HR MIN TEMP:  53; 6HR MAX TEMP:  56; 6HR PCP:  0.43;

HARLAN APT*    CLOUDY    52  52 100 NE3       29.25F
PIKE CO APT*   CLOUDY    53  52  97 NE8       29.30F
BIG SANDY APT* LGT RAIN  52  52 100 NE7       29.31F
6HR MIN TEMP:  52; 6HR MAX TEMP:  54;

MOREHEAD APT*  LGT RAIN  54  50  87 NE8       29.36S
ASHLAND*       CLOUDY    54  52  94 NE8       29.35F
$$

KYZ035-036-041-042-044-050-067-078-099-230700
...CENTRAL KENTUCKY...

CITY           SKY/WX    TMP DP  RH WIND       PRES   REMARKS
MT STERLING*   DRIZZLE   52  52 100 E12       29.35S
FLEMING/MASON* CLOUDY    53  50  91 NE9       29.38S
DANVILLE*      LGT RAIN  52  50  93 NE13      29.33S
LEXINGTON      LGT RAIN  54  50  86 NE14      29.34S
6HR MIN TEMP:  54; 6HR MAX TEMP:  56; 6HR PCP: TRACE;

FRANKFORT      CLOUDY    57  47  69 N13G22    29.35S
6HR MIN TEMP:  56; 6HR MAX TEMP:  58; 6HR PCP: TRACE;

LOUISVILLE     CLOUDY    58  48  69 N12       29.38S
6HR MIN TEMP:  58; 6HR MAX TEMP:  61; 6HR PCP: TRACE;

LEBANON*       CLOUDY    55  50  82 N8        29.33S
GLASGOW*       CLOUDY    56  50  81 N12       29.31S
BOWLING GREEN  CLOUDY    59  50  72 N14G21    29.33F
6HR MIN TEMP:  57; 6HR MAX TEMP:  61; 6HR PCP:  0.01;

$$

KYZ091>093-OHZ055-061-077-WVZ005-015-034-035-042-230700
...SOUTHERN OHIO/WEST VIRGINIA...

CITY           SKY/WX    TMP DP  RH WIND       PRES   REMARKS
COVINGTON      CLOUDY    55  48  77 N17       29.40F
COLUMBUS       CLOUDY    56  48  74 NE14      29.43F
DAYTON         CLOUDY    49  46  90 N18       29.46F
WILMINGTON     CLOUDY    51  48  89 NE14      29.40F
HUNTINGTON     LGT RAIN  54  50  86 NE6       29.35F
CHARLESTON     CLOUDY    54  49  83 NE9       29.35F
BECKLEY        CLOUDY    49  45  86 E14G26    29.34F
BLUEFIELD      CLOUDY    46  44  93 E9G20     29.34F
LOGAN CO APT*  CLOUDY    54  50  87 NE6       29.33F
$$

VAZ002-007-008-TNZ017-027-036-066-071-230700
...SOUTHWEST VIRGINIA/EAST TENNESSEE...

CITY           SKY/WX    TMP DP  RH WIND       PRES   REMARKS
WISE*          CLOUDY    52  45  76 NE7       29.28F
JONESVILLE*    LGT RAIN  54  52  94 CALM      29.25S
ABINGDON*      LGT RAIN  52  49  90 E17G23    29.26F
BRISTOL        LGT RAIN  54  48  80 NE10      29.22F
MORRISTOWN*    MOCLDY    54  54 100 E6G15     29.20S FOG
SEVIERVILLE*   CLOUDY    50  48  93 VRB3      29.17F
KNOXVILLE      CLOUDY    55  51  86 E3        29.16F
LAFOLLETTE*    CLOUDY    55  54  94 NE5       29.24R
OAK RIDGE      CLOUDY    56  53  90 VRB6      29.18F
CROSSVILLE     LGT RAIN  52  51  97 N9        29.22F
NASHVILLE      CLOUDY    56  52  86 N15       29.30S
$$

...KEY TO REMARKS...
VSB - VISIBILITY IN MILES
WCI - WIND CHILL INDEX
HX  - HEAT INDEX

$$




USA.gov is the U.S. government's official web portal to all federal, state and local government web resources and services.